Zurück zum Katalog

STARLINK-32359

AktivKommunikationVLEO
NORAD 61957·PAYLOAD·🇺🇸 United States

Gestartet Nov 14, 2024 von Vandenberg Space Force Base

Loading…

Nächste Überflüge (nächste 24 Stunden)

TLE

AktuellSource: CelesTrak SupGP

Epoche: Sep 15, 2026, 03:03 UTC

1 61957C 24209U   26258.12756944  .00068683  00000+0  20289-2 0  2587
2 61957  53.1595 333.0149 0001192  93.7133 270.5461 15.34362653    14

Verfolge STARLINK-32359 in Echtzeit mit AllMySat

Download on the App Store